Zurück zum Katalog

STARLINK-37908

AktivKommunikationSSO
NORAD 69688·PAYLOAD·🇺🇸 United States

Gestartet Jun 25, 2026 von Vandenberg Space Force Base

Loading…

Nächste Überflüge (nächste 24 Stunden)

TLE

AktuellSource: CelesTrak SupGP

Epoche: Sep 15, 2026, 03:32 UTC

1 69688C 26145M   26258.14770833 -.00036313  00000+0 -11272-2 0  2581
2 69688  97.2844 104.8941 0001789  92.5321 253.6872 15.33458985    12

Verfolge STARLINK-37908 in Echtzeit mit AllMySat

Download on the App Store